Wind_Speed
33 36 40 40 34 28 27 28 31 31 33 35 37 38 39 40 40 41 39 36 36 34 34 33 35 37 40 41 42 45 47 49 51 53 55 56 58 60 61 63 64 65 66
34 38 43 46 43 38 33 32 34 35 37 39 40 42 43 44 44 45 42 40 39 37 36 37 37 39 42 43 45 48 50 53 55 57 58 58 59 61 63 65 66 66 67
38 41 45 48 46 40 37 35 36 38 40 42 43 45 47 47 47 46 44 44 42 39 37 37 39 42 46 47 49 50 52 54 56 57 58 59 59 60 62 65 66 67 67
39 40 45 48 46 43 40 38 38 40 42 43 45 47 48 48 48 47 46 46 43 39 38 39 42 45 48 49 51 52 53 55 56 57 59 59 60 60 61 63 65 66 67
38 38 41 44 44 42 40 39 39 41 43 45 46 47 49 48 48 47 47 47 45 43 43 43 45 47 49 50 51 53 55 55 57 59 60 61 62 63 63 64 66 67 68
35 37 37 37 38 39 39 39 40 42 44 46 46 47 48 48 48 49 49 48 47 45 45 45 47 48 50 51 52 54 56 57 59 61 62 62 63 64 65 67 68 69 69
37 38 38 36 36 37 38 39 41 43 45 46 47 47 48 49 49 49 48 48 48 48 47 48 49 52 52 53 55 57 59 60 61 61 61 62 63 66 68 70 70 69 67
40 40 39 37 35 36 37 39 40 43 45 46 47 48 48 48 48 48 47 47 49 49 49 51 53 54 55 56 58 59 60 60 60 60 61 63 66 69 70 70 69 66 64
31 30 32 33 34 35 37 38 39 40 42 43 44 46 46 46 46 47 47 48 50 51 52 55 57 57 57 58 59 60 60 60 60 62 64 67 69 70 70 69 68 67 65
27 28 29 31 33 35 35 36 36 38 39 40 42 43 44 44 45 45 47 49 51 54 56 58 58 58 58 58 60 60 60 61 63 65 67 69 70 70 69 68 68 68 68
33 34 32 30 32 33 34 35 36 38 40 41 43 44 46 46 47 48 50 52 54 56 58 59 59 59 59 60 61 62 62 63 65 66 68 69 70 69 69 69 69 68 68
37 34 31 30 31 33 34 36 38 40 41 43 44 46 47 48 49 50 53 55 57 57 58 59 59 60 62 62 62 62 63 64 66 68 69 69 69 69 68 68 67 65 63
30 28 30 32 33 34 36 38 40 42 44 45 46 48 50 51 52 54 56 58 58 59 60 60 62 64 65 63 61 61 62 64 67 68 68 68 68 67 66 64 60 56 52
21 25 30 33 35 37 39 41 43 45 47 49 50 52 54 55 56 57 58 59 61 61 63 64 65 65 62 59 59 60 63 65 66 66 67 66 65 63 59 54 49 46 42
34 34 36 39 41 43 44 46 48 50 52 53 54 55 55 56 57 58 60 61 63 64 66 64 61 60 57 56 58 61 62 64 64 64 64 62 58 53 49 45 42 39 36
50 48 47 47 47 48 49 51 52 54 55 55 55 55 55 57 59 61 63 65 65 64 61 57 54 53 54 56 59 60 61 61 61 60 57 53 49 46 43 40 37 33 30
54 53 52 50 50 49 50 51 52 53 54 54 54 54 56 58 61 65 66 63 60 57 53 50 50 52 54 56 57 58 58 58 56 52 48 44 42 40 37 33 30 27 25
53 53 51 50 49 49 49 49 50 50 51 51 52 55 57 59 61 63 62 59 52 49 47 47 50 52 53 53 54 54 53 50 46 43 41 39 37 34 30 26 23 20 17
51 51 50 49 48 47 47 48 48 48 48 49 52 54 56 59 61 59 55 50 46 45 46 47 49 50 50 50 49 47 44 41 38 37 36 34 30 27 22 18 14 10 9
47 47 47 46 46 45 45 44 44 45 47 49 52 55 57 58 56 52 48 44 44 45 46 46 47 47 46 44 41 38 35 33 32 32 31 28 24 19 14 10 7 5 4
43 43 43 42 40 40 39 40 41 43 46 50 52 53 51 48 45 43 42 42 43 44 44 44 43 41 39 36 33 30 28 27 26 25 23 19 16 11 8 6 5 5 5
37 37 35 34 33 33 35 37 40 44 46 47 47 44 42 41 40 39 40 41 42 42 41 39 36 33 30 28 26 25 24 22 21 18 15 12 9 7 7 7 7 8 8
31 30 29 28 29 31 33 36 39 41 40 39 37 36 35 37 38 39 39 39 38 36 34 31 28 26 24 22 21 21 20 19 16 13 10 7 6 7 8 9 10 10 10
27 26 25 26 28 30 32 34 34 32 31 31 32 33 34 35 36 37 36 34 31 28 25 23 22 21 19 18 18 18 17 16 12 8 6 6 7 9 10 10 10 10 10
22 22 23 25 26 26 25 25 26 27 28 30 32 33 34 34 33 32 29 26 23 21 20 20 19 18 17 16 15 14 13 11 8 5 5 7 9 11 11 11 11 10 9
18 19 19 19 19 20 21 23 24 26 28 30 31 32 31 29 27 24 21 19 18 18 18 18 17 16 15 14 12 11 9 6 4 4 7 10 12 12 12 11 10 10 10
Wind_Direction
273 277 278 279 280 289 295 291 286 285 284 285 287 289 291 292 293 293 291 282 281 279 282 287 289 292 294 295 297 296 295 294 292 291 290 289 289 288 287 286 285 285 286
265 272 276 277 284 289 292 287 282 281 280 281 283 285 288 289 291 293 293 290 285 279 281 286 290 293 294 295 296 295 295 293 292 291 290 289 289 288 288 287 286 286 286
265 266 270 275 283 286 288 285 280 278 279 281 282 283 284 286 289 292 295 296 293 287 286 288 292 294 295 296 296 296 295 294 293 292 292 291 289 289 289 290 290 290 290
273 269 267 272 279 282 283 282 279 279 280 281 281 281 281 284 288 292 297 299 298 294 293 294 296 296 296 297 296 297 296 295 295 294 293 292 291 290 289 290 291 292 292
273 273 268 269 273 277 278 278 278 279 280 281 281 281 283 284 289 293 296 299 299 299 299 297 297 296 297 298 297 298 297 296 295 294 293 293 293 292 292 292 292 293 292
268 269 269 268 269 271 273 276 277 279 280 281 282 283 285 288 291 293 296 296 296 297 299 298 297 297 299 299 298 297 296 295 294 293 293 294 294 295 295 295 294 294 293
262 264 267 268 266 267 270 273 276 279 280 282 284 285 287 289 291 293 294 293 294 296 297 297 298 299 299 299 298 297 296 294 294 295 295 296 297 297 298 297 296 296 294
267 267 266 267 265 266 269 271 274 277 279 282 283 284 286 288 289 289 290 291 292 295 296 298 300 301 300 299 298 297 296 296 296 296 297 298 298 299 298 298 296 295 293
269 270 268 266 264 266 268 271 274 276 278 279 281 283 284 285 286 287 288 290 292 293 296 298 300 300 299 299 298 298 298 297 298 298 299 299 299 299 298 297 296 294 292
268 273 270 265 265 267 270 273 276 277 278 280 281 282 282 284 285 287 289 290 291 294 297 298 298 298 297 298 299 299 298 298 299 300 301 301 300 300 298 297 296 295 293
275 279 272 268 268 269 271 273 275 277 279 281 282 282 284 285 287 289 290 292 293 295 296 296 296 296 296 297 298 298 298 299 301 302 302 301 301 299 298 297 296 295 294
269 271 273 271 270 270 272 274 277 279 282 284 285 287 288 289 290 291 292 293 294 295 294 295 295 296 297 297 298 298 299 301 302 303 302 302 300 299 298 297 296 295 294
257 268 274 274 274 274 276 278 280 282 283 285 287 290 291 292 293 292 293 294 293 294 294 294 295 296 296 297 298 300 302 303 303 303 302 302 301 299 298 297 297 296 295
270 276 276 277 277 277 278 279 281 283 285 287 289 291 291 292 292 292 292 293 292 292 292 292 293 295 297 299 300 302 303 303 303 303 303 302 301 300 300 299 298 297 296
288 286 282 281 279 279 279 281 283 285 286 288 290 291 291 292 292 292 291 291 290 290 291 292 294 297 300 301 302 303 303 304 304 304 304 303 303 302 302 301 300 298 296
287 286 285 283 281 281 281 282 284 285 287 288 290 291 291 291 291 290 288 287 288 289 291 294 298 302 303 303 303 304 305 305 305 305 305 305 305 305 304 303 300 297 296
282 284 285 285 284 284 283 283 283 284 286 287 289 290 289 288 289 289 287 287 288 291 295 300 303 304 303 304 305 306 306 307 307 307 308 308 309 308 306 303 299 296 294
283 285 286 286 285 284 283 282 283 283 285 287 288 288 288 289 289 290 290 291 295 300 303 304 304 303 304 305 306 307 308 308 309 310 312 313 313 312 310 307 301 297 294
283 284 285 285 284 283 282 282 282 283 285 286 286 287 288 289 290 291 293 298 303 304 304 304 304 304 306 307 307 308 309 310 312 314 317 319 319 318 316 313 309 303 299
282 283 283 283 283 283 283 283 283 284 284 284 285 286 287 288 290 294 299 304 305 305 305 305 305 306 307 308 308 309 311 313 316 319 321 323 324 326 328 329 332 331 330
282 283 284 284 284 284 283 283 283 282 282 283 285 286 289 293 298 303 305 305 305 305 306 306 307 308 308 308 309 311 314 317 320 323 325 328 332 340 351 9 29 40 44
283 284 286 287 287 286 285 284 283 283 282 284 287 292 297 301 304 305 305 305 306 307 308 309 309 309 309 310 312 315 319 323 327 330 334 340 353 12 35 52 60 65 67
285 288 289 290 289 288 286 284 284 286 288 293 298 303 304 305 305 306 307 308 309 310 311 311 311 312 313 314 317 321 325 330 336 341 349 5 28 51 62 69 74 74 69
288 290 292 292 290 289 287 289 291 295 300 304 306 307 306 307 309 310 312 313 314 314 314 316 317 318 318 319 322 326 330 336 344 353 9 40 60 68 73 77 79 75 67
291 292 293 293 292 293 297 302 306 308 308 308 309 310 311 313 315 316 318 319 319 320 321 323 324 324 324 325 327 329 332 339 352 16 51 70 75 77 78 78 76 71 64
294 295 297 301 307 311 313 313 312 312 312 313 313 315 317 319 321 322 323 325 326 327 329 331 331 331 331 331 333 336 343 357 26 69 85 86 84 82 79 76 72 67 57
Height
5862 5857 5852 5846 5844 5846 5849 5850 5848 5848 5848 5846 5844 5843 5841 5840 5839 5837 5834 5832 5830 5827 5825 5824 5822 5818 5815 5812 5810 5807 5804 5800 5795 5792 5789 5786 5782 5777 5772 5768 5764 5759 5755
5857 5854 5847 5843 5841 5840 5843 5844 5842 5841 5840 5839 5838 5836 5834 5832 5831 5828 5826 5823 5821 5819 5817 5815 5813 5810 5806 5803 5800 5796 5793 5788 5783 5778 5774 5771 5768 5762 5757 5751 5747 5744 5740
5850 5847 5842 5838 5837 5835 5836 5836 5834 5834 5832 5831 5830 5828 5826 5824 5822 5820 5817 5815 5812 5810 5808 5806 5803 5800 5796 5793 5788 5784 5780 5775 5770 5764 5760 5755 5752 5748 5743 5736 5731 5727 5723
5841 5838 5835 5831 5830 5829 5829 5828 5827 5826 5824 5822 5821 5819 5816 5815 5813 5811 5809 5806 5803 5800 5798 5796 5793 5789 5784 5781 5776 5771 5766 5761 5756 5750 5745 5740 5736 5732 5729 5723 5716 5711 5707
5831 5828 5826 5825 5824 5823 5821 5820 5819 5817 5816 5814 5812 5810 5807 5806 5803 5802 5799 5796 5794 5791 5788 5786 5782 5777 5773 5768 5763 5758 5752 5747 5742 5736 5730 5725 5720 5715 5712 5708 5703 5697 5691
5820 5819 5818 5818 5818 5816 5814 5812 5811 5809 5808 5806 5804 5802 5799 5797 5795 5792 5789 5786 5784 5782 5779 5775 5770 5765 5761 5756 5750 5745 5739 5733 5728 5721 5716 5710 5704 5699 5694 5690 5685 5680 5675
5812 5810 5810 5810 5810 5808 5806 5804 5803 5801 5800 5798 5796 5794 5791 5788 5786 5783 5780 5776 5773 5771 5769 5763 5759 5754 5748 5742 5737 5731 5725 5719 5713 5707 5701 5695 5689 5683 5677 5671 5666 5661 5657
5804 5803 5803 5802 5801 5799 5798 5796 5795 5793 5791 5789 5787 5785 5782 5779 5777 5773 5771 5767 5763 5760 5756 5751 5746 5740 5735 5729 5723 5716 5711 5705 5699 5693 5687 5681 5674 5667 5660 5653 5648 5643 5640
5795 5795 5794 5793 5791 5790 5789 5787 5786 5784 5783 5781 5778 5776 5773 5770 5767 5763 5761 5758 5753 5748 5744 5739 5733 5727 5721 5715 5708 5702 5696 5690 5684 5678 5672 5665 5658 5650 5643 5636 5629 5624 5621
5786 5786 5785 5784 5782 5781 5780 5779 5777 5775 5773 5771 5769 5766 5763 5760 5757 5754 5750 5746 5742 5737 5731 5726 5720 5714 5708 5702 5695 5689 5682 5676 5670 5663 5656 5648 5640 5633 5625 5618 5611 5604 5600
5779 5778 5776 5775 5774 5773 5772 5770 5769 5766 5764 5762 5759 5756 5753 5749 5746 5743 5739 5734 5729 5724 5718 5712 5706 5701 5695 5688 5682 5675 5668 5662 5655 5647 5640 5632 5623 5616 5608 5600 5593 5586 5580
5770 5769 5768 5767 5766 5765 5763 5762 5760 5757 5755 5752 5749 5746 5742 5738 5734 5731 5726 5722 5716 5710 5704 5698 5692 5686 5681 5674 5667 5660 5654 5647 5639 5631 5623 5615 5606 5599 5590 5583 5575 5568 5562
5757 5760 5761 5760 5758 5757 5755 5753 5750 5748 5745 5741 5738 5735 5731 5727 5722 5718 5713 5707 5702 5696 5689 5683 5678 5672 5666 5660 5652 5646 5639 5632 5623 5615 5606 5598 5590 5582 5573 5565 5559 5552 5547
5749 5753 5753 5752 5750 5748 5746 5743 5740 5737 5734 5730 5727 5723 5719 5714 5709 5704 5699 5693 5687 5681 5675 5669 5663 5657 5652 5645 5638 5632 5625 5617 5608 5599 5590 5581 5573 5565 5557 5551 5544 5539 5535
5742 5744 5744 5742 5740 5738 5735 5732 5729 5725 5722 5718 5714 5710 5706 5701 5696 5690 5685 5679 5673 5667 5661 5655 5649 5643 5638 5632 5625 5618 5611 5603 5594 5584 5575 5566 5558 5550 5543 5538 5533 5528 5524
5733 5732 5732 5731 5729 5726 5723 5720 5716 5713 5709 5705 5701 5697 5692 5687 5682 5676 5670 5664 5658 5653 5647 5641 5636 5631 5625 5619 5612 5605 5597 5588 5579 5570 5561 5553 5545 5538 5532 5527 5522 5518 5515
5723 5722 5720 5718 5716 5713 5710 5707 5703 5700 5696 5692 5688 5684 5679 5674 5668 5662 5656 5650 5645 5639 5634 5629 5624 5619 5614 5606 5599 5591 5583 5574 5566 5557 5550 5542 5535 5528 5522 5517 5513 5510 5508
5713 5710 5708 5705 5703 5700 5697 5694 5691 5687 5684 5680 5676 5672 5666 5661 5655 5650 5644 5638 5632 5627 5623 5618 5613 5607 5601 5594 5587 5578 5570 5562 5554 5547 5540 5533 5526 5520 5514 5510 5507 5505 5503
5702 5699 5696 5693 5690 5688 5685 5682 5679 5676 5672 5668 5664 5660 5655 5650 5644 5638 5632 5627 5622 5617 5612 5607 5601 5595 5589 5582 5575 5567 5560 5553 5546 5539 5532 5526 5520 5514 5509 5505 5503 5502 5501
5691 5688 5685 5682 5679 5676 5673 5670 5668 5665 5661 5657 5653 5648 5643 5638 5632 5626 5621 5616 5612 5607 5601 5596 5590 5584 5577 5571 5564 5558 5552 5546 5540 5533 5527 5521 5516 5511 5507 5504 5502 5502 5501
5680 5677 5674 5671 5668 5666 5663 5660 5657 5654 5651 5646 5642 5637 5631 5626 5621 5616 5611 5606 5602 5596 5591 5585 5579 5573 5567 5561 5556 5551 5546 5541 5535 5530 5524 5519 5514 5511 5508 5505 5504 5503 5503
5670 5667 5665 5662 5659 5657 5654 5651 5648 5644 5640 5636 5631 5626 5620 5616 5612 5607 5602 5596 5591 5586 5580 5574 5569 5564 5559 5554 5549 5545 5540 5536 5531 5527 5522 5518 5515 5512 5509 5508 5507 5506 5506
5662 5660 5657 5655 5652 5649 5646 5643 5639 5635 5631 5626 5622 5618 5613 5607 5603 5598 5592 5587 5581 5576 5571 5566 5561 5557 5552 5548 5544 5540 5536 5532 5529 5525 5522 5519 5517 5514 5512 5511 5510 5509 5509
5656 5653 5651 5648 5645 5642 5639 5635 5631 5627 5623 5619 5615 5611 5605 5600 5594 5589 5583 5577 5572 5568 5563 5559 5555 5551 5547 5544 5541 5537 5534 5530 5528 5525 5523 5521 5519 5517 5515 5514 5514 5513 5512
5650 5648 5645 5643 5640 5636 5633 5629 5625 5621 5617 5612 5608 5603 5597 5591 5585 5580 5575 5570 5566 5562 5558 5555 5551 5547 5544 5541 5538 5535 5532 5530 5528 5526 5525 5524 5522 5520 5519 5519 5518 5517 5516
5646 5644 5641 5638 5635 5632 5628 5625 5620 5616 5611 5606 5600 5594 5589 5583 5578 5574 5569 5565 5562 5558 5554 5551 5547 5544 5541 5538 5536 5533 5531 5530 5529 5528 5527 5526 5525 5524 5523 5523 5522 5521 5520